Tracking 30166 objects as of 22-Jan-2025
HD Live streaming from Space Station
objects crossing your sky now

SL-8 R/B

Track SL-8 R/B now!
10-day predictions


NORAD ID: 13066
Int'l Code: 1982-012B
Perigee: 947.8 km
Apogee: 1,013.1 km
Inclination: 82.9 °
Period: 104.5 minutes
Semi major axis: 7351 km
RCS: 4.3932 m2 (large)
Launch date: February 17, 1982
Source: Commonwealth of Independent States (former USSR) (CIS)
Launch site: PLESETSK MISSILE AND SPACE COMPLEX (PKMTR)

Note: This is a ROCKET BODY
Your satellite tracking list
Your tracking list is empty




NASA's NSSDC Master Catalog

Two Line Element Set (TLE):
1 13066U 82012B   25021.85782644  .00000148  00000-0  13253-3 0  9993
2 13066  82.8986 303.1561 0044416  32.4863  30.7690 13.77333922157012
Source of the keplerian elements: AFSPC